DateTimeUTC,F1_A11,F1_S11,BsB_S11,BsG_S11,BsR_S11,BbsB_S11,BbsG_S11,BbsR_S11,BaB_A11,BaG_A11,BaR_A11,Tu_S11,T_S11,Uu_S11,U_S11,P_S11,T1_A11
2021-03-11T09:00:00Z,00000200,21000000,,,,,,,-000.12,0000.03,-000.16,16.8,24.4,,00.0,0637.9,30.9
2021-03-11T09:01:00Z,00000200,21000000,,,,,,,0000.24,-000.02,0000.25,16.8,24.4,,00.0,0637.9,30.9
2021-03-11T09:02:00Z,00000200,21000000,,,,,,,-000.10,-000.28,0000.04,16.9,24.5,,00.0,0637.9,31.0
2021-03-11T09:03:00Z,00000200,61000000,,,,,,,0000.73,0000.90,0000.57,16.9,24.5,,00.0,0637.9,30.9
2021-03-11T09:04:00Z,00000200,41000000,0001.90,0001.38,0000.63,0000.32,0000.36,0000.11,0000.46,0000.59,-000.02,17.3,24.4,,00.0,0638.8,31.0
2021-03-11T09:05:00Z,00000200,01000000,0002.80,0002.02,0000.96,0001.05,0000.22,0000.27,0001.12,0000.73,0000.85,17.4,24.4,,00.0,0638.9,31.0
2021-03-11T09:06:00Z,00000200,01000000,0003.42,0001.66,0000.97,0000.74,0000.35,0000.09,0001.16,0000.68,0000.29,17.4,24.4,,00.0,0638.9,31.0
2021-03-11T09:07:00Z,00000200,01000000,0002.95,0001.90,0000.62,0000.33,0000.27,0000.23,0000.66,0001.17,0000.87,17.4,24.4,,00.0,0638.9,31.0
2021-03-11T09:08:00Z,00000200,01000000,0003.28,0001.72,0001.08,0000.47,0000.18,0000.27,0001.29,0000.90,0000.81,17.3,24.3,,00.0,0638.9,30.9
2021-03-11T09:09:00Z,00000200,01000000,0002.86,0002.03,0000.94,0000.45,0000.18,0000.36,0000.70,0000.50,0000.57,17.2,24.3,,00.0,0638.8,30.9
2021-03-11T09:10:00Z,00000200,01000000,0002.96,0001.82,0000.69,0000.91,0000.12,0000.34,0000.47,0000.89,0000.07,17.2,24.2,,00.0,0638.8,30.9
2021-03-11T09:11:00Z,00000200,01000000,0002.64,0002.09,0000.67,0000.36,0000.37,0000.40,0001.12,0001.00,0000.91,17.1,24.2,,00.0,0638.8,30.9
2021-03-11T09:12:00Z,00000200,01000000,0003.54,0002.05,0001.44,0000.57,0000.40,0000.26,0001.27,0000.53,0000.57,17.0,24.2,,00.0,0638.8,30.9
2021-03-11T09:13:00Z,00000200,01000000,0003.36,0002.11,0001.23,0000.86,0000.16,0000.38,0000.67,0001.12,0000.83,17.0,24.2,,00.0,0638.8,30.9
2021-03-11T09:14:00Z,00000200,01000000,0003.12,0002.06,0001.12,0000.67,0000.52,0000.32,0000.89,0000.94,0000.83,17.0,24.1,,00.0,0638.8,30.9
2021-03-11T09:15:00Z,00000200,01000000,0003.25,0001.51,0000.62,0000.54,0000.24,0000.11,0001.02,0000.46,0000.01,17.1,24.1,,00.0,0638.8,30.9
2021-03-11T09:16:00Z,00000200,01000000,0002.74,0001.28,0000.65,0000.47,0000.30,0000.07,0000.68,0000.83,0000.77,17.1,24.2,,00.0,0638.8,30.9
2021-03-11T09:17:00Z,00000200,01000000,0002.27,0001.92,0001.03,0000.47,0000.18,0000.36,0000.54,0000.59,0000.45,17.2,24.2,,00.0,0638.8,30.9
2021-03-11T09:18:00Z,00000200,01000000,0002.44,0001.63,0000.54,0000.54,0000.19,0000.32,0000.39,0000.33,0000.47,17.2,24.2,,00.0,0638.8,30.9
2021-03-11T09:19:00Z,00000200,01000000,0002.01,0001.41,0001.07,0000.58,0000.29,0000.22,0000.87,0000.64,0000.19,17.3,24.3,,00.0,0638.8,30.9
2021-03-11T09:20:00Z,00000200,01000000,0002.68,0001.33,0000.78,0000.48,0000.17,0000.11,0000.72,0000.55,0000.69,17.3,24.3,,00.0,0638.8,30.9
2021-03-11T09:21:00Z,00000200,01000000,0002.99,0001.72,0000.84,0000.28,0000.28,0000.15,0000.97,0001.27,0000.68,17.3,24.3,,00.0,0638.8,30.9
2021-03-11T09:22:00Z,00000200,01000000,0002.52,0001.66,0000.84,0001.02,0000.38,0000.11,0000.47,0000.65,0000.28,17.3,24.2,,00.0,0638.8,30.9
2021-03-11T09:23:00Z,00000200,01000000,0002.65,0001.91,0001.01,0000.73,0000.01,0000.21,0001.22,0000.35,0000.27,17.2,24.2,,00.0,0638.8,30.9
2021-03-11T09:24:00Z,00000200,01000000,0003.30,0001.97,0000.90,0001.12,0000.23,0000.20,0000.71,0001.06,0000.90,17.1,24.2,,00.0,0638.8,30.9
2021-03-11T09:25:00Z,00000200,01000000,0002.92,0001.25,0000.73,0000.43,0000.41,0000.08,0000.69,0000.33,0000.35,17.0,24.1,,00.0,0638.7,30.9
2021-03-11T09:26:00Z,00000200,01000000,0002.42,0001.10,0000.70,0000.32,0000.24,0000.25,0000.61,0000.98,0000.60,16.9,24.1,,00.0,0638.7,30.9
2021-03-11T09:27:00Z,00000200,01000000,0002.44,0001.52,0001.00,0000.46,0000.32,0000.13,0000.66,0000.49,0000.39,16.9,24.1,,00.0,0638.7,30.8
2021-03-11T09:28:00Z,00000200,01000000,0002.28,0001.44,0000.68,0000.64,0000.21,0000.18,0000.99,0000.50,0000.45,16.9,24.0,,00.0,0638.7,30.8
2021-03-11T09:29:00Z,00000200,01000000,0002.62,0001.57,0000.89,0000.78,0000.32,0000.38,0000.92,0000.82,0000.79,16.9,24.0,,00.0,0638.7,30.9
2021-03-11T09:30:00Z,00000200,01000000,0001.65,0001.12,0000.67,0000.43,0000.20,0000.29,0000.33,0000.66,0000.03,17.0,24.0,,00.0,0638.7,30.9
2021-03-11T09:31:00Z,00000200,01000000,0002.37,0001.51,0000.50,0000.10,0000.33,0000.41,0000.79,0000.44,0000.70,17.0,24.0,,00.0,0638.7,30.9
2021-03-11T09:32:00Z,00000200,01000000,0002.00,0001.88,0000.64,0000.57,0000.16,0000.06,0000.99,0001.14,0000.79,17.0,24.0,,00.0,0638.7,30.9
2021-03-11T09:33:00Z,00000200,01000000,0002.23,0001.59,0000.88,0000.84,0000.42,0000.33,0000.81,0000.92,0000.56,17.1,24.1,,00.0,0638.7,30.9
2021-03-11T09:34:00Z,00000200,01000000,0002.55,0001.39,0000.71,0000.29,0000.23,0000.08,0000.90,0000.16,0000.28,17.2,24.1,,00.0,0638.7,30.9
2021-03-11T09:35:00Z,00000200,01000000,0002.37,0001.02,0000.70,0000.67,-000.02,0000.26,0000.51,0000.85,0000.69,17.2,24.2,,00.0,0638.7,30.9
2021-03-11T09:36:00Z,00000200,01000000,0002.20,0001.32,0000.99,0000.73,0000.18,0000.31,0000.89,0000.72,0000.53,17.2,24.2,,00.0,0638.7,30.9
2021-03-11T09:37:00Z,00000200,01000000,0001.95,0001.30,0000.52,0000.68,0000.16,0000.07,0000.57,0000.43,0000.16,17.3,24.2,,00.0,0638.8,31.0
2021-03-11T09:38:00Z,00000200,01000000,0001.65,0001.14,0000.53,0000.24,0000.08,-000.26,0000.61,0000.43,0000.32,17.3,24.2,,00.0,0638.7,30.9
2021-03-11T09:39:00Z,00000200,01000000,0001.61,0001.00,0000.34,0000.10,0000.06,-000.24,0000.38,0000.27,0000.51,17.2,24.2,,00.0,0638.8,30.9
2021-03-11T09:40:00Z,00000200,01000000,0001.05,0001.22,0000.61,0000.13,0000.18,0000.24,0000.61,0000.78,-000.20,17.2,24.2,,00.0,0638.8,30.9
2021-03-11T09:41:00Z,00000200,01000000,0001.49,0001.48,0000.64,0000.15,-000.06,0000.15,0000.15,0000.41,0000.68,17.1,24.1,,00.0,0638.8,30.9
2021-03-11T09:42:00Z,00000200,01000000,0001.13,0001.10,0000.41,0000.06,0000.15,0000.12,0000.43,0000.02,0000.05,17.0,24.1,,00.0,0638.8,30.9
2021-03-11T09:43:00Z,00000200,01000000,0001.88,0000.89,0000.80,0000.52,0000.13,0000.39,0000.79,0000.79,0000.50,17.0,24.1,,00.0,0638.8,30.9
2021-03-11T09:44:00Z,00000200,01000000,0002.15,0001.15,0000.52,-000.02,0000.24,0000.15,0000.45,0000.25,0000.46,17.0,24.1,,00.0,0638.8,30.9
2021-03-11T09:45:00Z,00000200,01000000,0000.70,0001.19,0000.54,0000.47,0000.20,0000.29,0000.56,0000.81,0000.69,17.1,24.1,,00.0,0638.8,30.9
2021-03-11T09:46:00Z,00000200,01000000,0001.78,0001.20,0000.52,0000.37,0000.16,0000.27,0000.78,0000.46,0000.38,17.1,24.1,,00.0,0638.8,30.9
2021-03-11T09:47:00Z,00000200,01000000,0001.74,0000.81,0000.51,0000.05,0000.24,0000.10,0000.81,0000.67,0000.09,17.2,24.1,,00.0,0638.8,30.9
2021-03-11T09:48:00Z,00000200,01000000,0001.82,0000.93,0000.39,0000.57,0000.15,0000.21,0000.51,0000.66,0000.49,17.3,24.2,,00.0,0638.8,30.9
2021-03-11T09:49:00Z,00000200,01000000,0001.21,0001.18,0000.32,0000.31,0000.14,0000.29,0000.67,0000.75,0000.67,17.3,24.2,,00.0,0638.8,30.9
2021-03-11T09:50:00Z,00000200,01000000,0001.84,0000.99,0000.62,0000.56,0000.08,0000.04,0000.84,0000.17,0000.13,17.3,24.2,,00.0,0638.8,31.0
2021-03-11T09:51:00Z,00000200,01000000,0001.02,0000.83,0000.52,0000.10,0000.08,0000.13,0000.36,0000.92,0000.59,17.4,24.3,,00.0,0638.8,31.0
2021-03-11T09:52:00Z,00000200,01010000,0001.33,0001.05,0000.50,0000.16,0000.18,0000.25,0000.22,0000.36,0000.57,17.4,24.3,,00.0,0638.8,31.0
2021-03-11T09:53:00Z,00000200,01000000,0001.50,0000.94,0000.47,0000.19,0000.16,-000.04,0000.77,0000.18,0000.01,17.5,24.3,,00.0,0638.8,31.0
2021-03-11T09:54:00Z,00000200,01000000,0001.84,0001.13,0000.51,0000.77,0000.17,0000.25,0000.51,0000.57,0000.24,17.5,24.4,,00.0,0638.8,31.0
2021-03-11T09:55:00Z,00000200,01000000,0001.95,0001.07,0000.76,0000.12,0000.14,0000.12,0000.63,0000.47,0000.55,17.6,24.4,,00.0,0638.8,31.0
2021-03-11T09:56:00Z,00000200,01000000,0001.84,0000.94,0000.80,0000.02,0000.31,0000.28,0000.20,0000.47,0000.12,17.6,24.4,,00.0,0638.8,31.0
2021-03-11T09:57:00Z,00000200,41000000,,,,,,,0000.16,-000.04,0000.17,17.7,24.4,,00.0,0638.8,31.0
2021-03-11T09:58:00Z,00000200,61000000,,,,,,,0000.18,0000.15,-000.12,17.3,24.5,,00.0,0637.9,31.0
2021-03-11T09:59:00Z,00000200,21000000,,,,,,,-000.14,0000.12,0000.45,17.3,24.6,,00.0,0637.8,31.0
